Location: Croagnes
(43.9363°N, 5.3265°E)
Time: 03:55:50
(UTC+00:00)

Cosmos 1726 - Pass Details

Date: 06 June 2020
Orbit: 483 x 498 km, 82.5° (Epoch: 10 July)

Event Time Altitude Azimuth Distance (km) Brightness Sun altitude
Rises 21:08:25 0° 6° (N) 2,594 6.6 -15.1°
Reaches altitude 10° 21:11:02 10° 25° (NNE) 1,708 5.2 -15.3°
Maximum altitude 21:13:44 19° 72° (ENE) 1,246 4.0 -15.6°
Enters shadow 21:14:43 17° 92° (E) 1,312 3.9 -15.7°
